Randolph AFB, TX

1:45 PM CST on November 18, 2017 (GMT -0600)
Randolph Air Force Base

Weather History for KRND - August, 2014

Change the Weather History Date:

Tuesday, August 19, 2014

  Actual Average Record
Temperature  
Mean Temperature 86 °F -  
Max Temperature 98 °F 92 °F 103 °F (2011)
Min Temperature 74 °F 72 °F 69 °F (2013)
Cooling Degree Days 21    
Growing Degree Days 36 (Base 50)    
Moisture  
Dew Point 66 °F    
Average Humidity 53    
Maximum Humidity 77    
Minimum Humidity 29    
Precipitation  
Precipitation 0.00 in - - ()
Sea Level Pressure  
Sea Level Pressure 29.88 in    
Wind  
Wind Speed 8 mph (SSE)    
Max Wind Speed 20 mph    
Max Gust Speed 25 mph    
Visibility 10 miles    
Events      
Averages and records for this station are not official NWS values.
T = Trace of Precipitation, MM = Missing Value Source: NWS Daily Summary

Daily Weather History Graph

Daily Weather History Graph

Search for Another Location

Airport or City:

Trip Planner

Search our weather history database for the weather conditions in past years. The results will help you decide how hot, cold, wet, or windy it might be!

Date:

Astronomy

Aug. 19, 2014 Rise Set
Actual Time 7:03 AM CDT 8:09 PM CDT
Civil Twilight 6:38 AM CDT 8:34 PM CDT
Nautical Twilight 6:09 AM CDT 9:03 PM CDT
Astronomical Twilight 5:38 AM CDT 9:33 PM CDT
Moon 2:04 AM CDT (8/19) 3:59 PM CDT (8/19)
Length of Visible Light 13h 55m
Length of Day
13h 06m
Waning Crescent, 29% of the Moon is Illuminated
Aug 19
Waning Crescent
Aug 25
New
Sep 2
First Quarter
Sep 8
Full
Sep 15
Last Quarter

Hourly Weather History & Observations

Time (CDT) Temp. Heat Index Dew Point Humidity Pressure Visibility Wind Dir Wind Speed Gust Speed Precip Events Conditions
12:58 AM 82.8 °F 86.4 °F 69.4 °F 64% 29.91 in 10.0 mi NNW 3.5 mph - N/A   Mostly Cloudy
1:58 AM 79.2 °F - 66.4 °F 65% 29.89 in 10.0 mi North 3.5 mph - N/A   Clear
2:58 AM 78.1 °F - 64.2 °F 62% 29.89 in 10.0 mi NNE 3.5 mph - N/A   Clear
3:58 AM 76.5 °F - 64.9 °F 67% 29.90 in 9.0 mi ESE 1.2 mph - N/A   Partly Cloudy
4:58 AM 75.0 °F - 66.0 °F 73% 29.89 in 10.0 mi SE 4.6 mph - N/A   Partly Cloudy
5:58 AM 74.3 °F - 66.4 °F 76% 29.91 in 10.0 mi East 3.5 mph - N/A   Clear
6:58 AM 74.3 °F - 66.7 °F 77% 29.94 in 10.0 mi Calm Calm - N/A   Mostly Cloudy
7:58 AM 76.8 °F - 67.6 °F 73% 29.94 in 10.0 mi ESE 3.5 mph - N/A   Clear
8:58 AM 78.4 °F - 69.3 °F 73% 29.96 in 10.0 mi Variable 5.8 mph - N/A   Partly Cloudy
9:58 AM 79.3 °F - 68.5 °F 69% 29.97 in 10.0 mi SSW 8.1 mph - N/A   Clear
10:58 AM 81.0 °F 83.8 °F 68.0 °F 65% 29.97 in 10.0 mi SSW 5.8 mph - N/A   Partly Cloudy
11:58 AM 82.9 °F 86.3 °F 68.5 °F 62% 29.96 in 10.0 mi South 8.1 mph - N/A   Scattered Clouds
12:58 PM 87.4 °F 90.8 °F 68.0 °F 52% 29.94 in 10.0 mi South 5.8 mph - N/A   Mostly Cloudy
1:58 PM 94.1 °F 95.5 °F 63.7 °F 36% 29.89 in 10.0 mi South 18.4 mph 24.2 mph N/A   Mostly Cloudy
2:34 PM 95.0 °F 96.0 °F 62.6 °F 34% 29.90 in 10.0 mi South 17.3 mph 21.9 mph N/A   Mostly Cloudy
2:58 PM 97.5 °F 98.2 °F 61.3 °F 30% 29.85 in 10.0 mi South 12.7 mph 21.9 mph N/A   Mostly Cloudy
3:58 PM 97.0 °F 96.9 °F 60.3 °F 29% 29.81 in 10.0 mi South 18.4 mph 21.9 mph N/A   Scattered Clouds
4:40 PM 96.8 °F 97.1 °F 60.8 °F 30% 29.82 in 10.0 mi SE 15.0 mph - N/A   Scattered Clouds
4:58 PM 96.3 °F 97.2 °F 61.5 °F 32% 29.79 in 10.0 mi SSE 16.1 mph 18.4 mph N/A   Scattered Clouds
5:16 PM 98.6 °F 99.4 °F 60.8 °F 29% 29.81 in 10.0 mi South 11.5 mph 20.7 mph N/A   Scattered Clouds
5:58 PM 95.9 °F 95.7 °F 59.4 °F 30% 29.78 in 10.0 mi SSE 16.1 mph - N/A   Scattered Clouds
6:58 PM 95.4 °F 96.6 °F 62.6 °F 34% 29.80 in 10.0 mi SE 16.1 mph - N/A   Scattered Clouds
7:52 PM 91.4 °F 95.4 °F 68.0 °F 46% 29.83 in 10.0 mi South 19.6 mph 25.3 mph N/A   Drizzle
7:58 PM 90.1 °F 95.3 °F 70.0 °F 51% 29.81 in 10.0 mi SE 12.7 mph 25.3 mph 0.00 in   Light Drizzle
8:32 PM 87.8 °F 91.4 °F 68.0 °F 52% 29.85 in 10.0 mi SE 18.4 mph - N/A   Mostly Cloudy
8:58 PM 87.3 °F 90.5 °F 67.5 °F 52% 29.85 in 10.0 mi SSE 18.4 mph 24.2 mph 0.00 in   Overcast
9:58 PM 85.8 °F 88.2 °F 66.6 °F 52% 29.88 in 10.0 mi SE 17.3 mph 25.3 mph N/A   Overcast
10:58 PM 83.5 °F 86.2 °F 67.5 °F 58% 29.90 in 10.0 mi SE 17.3 mph - N/A   Overcast
11:58 PM 81.1 °F 84.4 °F 69.3 °F 67% 29.91 in 10.0 mi SSE 13.8 mph - N/A   Mostly Cloudy